TimeEDT,TemperatureF,Dew PointF,Humidity,Sea Level PressureIn,VisibilityMPH,Wind Direction,Wind SpeedMPH,Gust SpeedMPH,PrecipitationIn,Events,Conditions,WindDirDegrees,DateUTC
12:54 AM,43.0,21.9,43,29.73,10.0,ENE,10.4,-,N/A,,Mostly Cloudy,60,2014-03-15 04:54:00
1:54 AM,41.0,23.0,49,29.70,10.0,East,8.1,-,N/A,,Overcast,80,2014-03-15 05:54:00
2:54 AM,41.0,21.9,47,29.69,-9999.0,ENE,3.5,-,N/A,,Clear,60,2014-03-15 06:54:00
3:54 AM,37.9,25.0,60,29.73,10.0,WNW,5.8,-,N/A,,Overcast,290,2014-03-15 07:54:00
4:54 AM,37.0,30.9,79,29.72,10.0,East,3.5,-,0.01,,Overcast,100,2014-03-15 08:54:00
5:54 AM,36.0,28.9,76,29.73,10.0,ESE,6.9,-,N/A,,Clear,110,2014-03-15 09:54:00
6:54 AM,35.1,30.0,82,29.74,10.0,Calm,Calm,-,N/A,,Mostly Cloudy,0,2014-03-15 10:54:00
7:54 AM,34.0,30.0,85,29.77,10.0,Variable,4.6,-,N/A,,Partly Cloudy,0,2014-03-15 11:54:00
8:54 AM,44.1,32.0,63,29.78,10.0,West,16.1,21.9,N/A,,Scattered Clouds,270,2014-03-15 12:54:00
9:54 AM,46.9,27.0,46,29.80,10.0,West,16.1,26.5,N/A,,Clear,270,2014-03-15 13:54:00
10:54 AM,48.9,27.0,43,29.82,10.0,West,21.9,31.1,N/A,,Partly Cloudy,270,2014-03-15 14:54:00
11:54 AM,50.0,25.0,38,29.83,10.0,WNW,15.0,-,N/A,,Mostly Cloudy,290,2014-03-15 15:54:00
12:54 PM,51.1,25.0,36,29.84,10.0,West,17.3,24.2,N/A,,Mostly Cloudy,270,2014-03-15 16:54:00
1:54 PM,52.0,24.1,34,29.85,10.0,West,20.7,26.5,N/A,,Overcast,260,2014-03-15 17:54:00
2:54 PM,50.0,24.1,36,29.86,10.0,WNW,21.9,32.2,N/A,,Overcast,290,2014-03-15 18:54:00
3:54 PM,52.0,25.0,35,29.87,10.0,West,23.0,33.4,N/A,,Mostly Cloudy,270,2014-03-15 19:54:00
4:54 PM,48.9,23.0,36,29.90,10.0,West,20.7,26.5,N/A,,Mostly Cloudy,280,2014-03-15 20:54:00
5:54 PM,46.9,21.9,37,29.94,10.0,WNW,19.6,25.3,N/A,,Overcast,300,2014-03-15 21:54:00
6:54 PM,46.0,23.0,40,29.98,10.0,WNW,15.0,24.2,N/A,,Mostly Cloudy,290,2014-03-15 22:54:00
7:54 PM,42.1,23.0,47,30.03,10.0,WNW,17.3,28.8,N/A,,Mostly Cloudy,300,2014-03-15 23:54:00
8:54 PM,39.9,21.9,49,30.06,10.0,WNW,13.8,-,N/A,,Overcast,290,2014-03-16 00:54:00
9:54 PM,37.0,19.9,50,30.07,10.0,NW,9.2,-,N/A,,Partly Cloudy,310,2014-03-16 01:54:00
10:54 PM,36.0,19.0,50,30.08,10.0,WNW,9.2,-,N/A,,Clear,300,2014-03-16 02:54:00
11:54 PM,34.0,18.0,52,30.09,10.0,WNW,9.2,-,N/A,,Partly Cloudy,300,2014-03-16 03:54:00